www.pogodaiklimat.ru

Погода и климат >> Архив погоды >> Словения >> Любляна


АРХИВ ПОГОДЫ в Любляне

Время (UTC), дата Ветер
(напр.,м/с)
 
Видим.   Явления Облачность Т
(С)
Тd
(С)
f
(%)
Тe
(С)
Тes
(С)
Комфортность P
(гПа)
Po
(гПа)
Тmin
(С)
Tmax
(С)
R
(мм)
R24
(мм)
S
(см)
19 16.09 штиль 0
{2}
40 км 3/1 1200 м
[Sc Ci sp]
+18.1 +17.3 95 +18 +18 тепло 1016.1 972.0
20 16.09 ЮВ 1
{1}
40 км 4/0
[Ac trans Ci fib]
+17.0 +16.5 97 +18 +18 тепло 1016.4 972.1
21 16.09 штиль 0
{1}
40 км 4/0
[Ac trans]
+16.1 +15.8 98 +16 +16 тепло 1016.5 972.1
22 16.09 ЮЗ 1
{1}
40 км 5/0
[Ac trans]
+16.0 +15.7 98 +17 +17 тепло 1016.4 971.9
23 16.09 СЗ 1
{1}
40 км 5/0
[Ac trans]
+15.8 +15.6 99 +16 +16 тепло 1016.3 971.8
00 17.09 штиль 0
{2}
40 км 4/0
[Ac trans Ci fib]
+15.2 +15.0 99 +15 +15 тепло 1016.0 971.4
01 17.09 СЗ 1
{2}
30 км местами туман поземный 5/0
[Ac trans Ci fib]
+14.4 +14.2 99 +15 +15 тепло 1016.0 971.3
02 17.09 штиль 0
{1}
30 км местами туман поземный 5/0
[Ac trans Ci fib]
+14.1 +13.9 99 +14 +14 тепло 1015.9 971.1
03 17.09 СЗ 1
{1}
30 км местами туман поземный 5/0
[Ac trans Ci fib]
+13.8 +13.6 99 +14 +14 тепло 1015.7 970.9
04 17.09 ЮВ 1
{2}
500 м туман ?/? +14.5 +14.5 100 +15 +15 тепло 1015.6 970.9
05 17.09 З 1
{2}
400 м туман 9/9 60 м
[St Ac trans]
+14.5 +14.5 100 +15 +15 тепло 1015.8 971.1
06 17.09 ЮЗ 1
{2}
400 м туман 3/1 30 м
[St Ac trans Ci fib]
+15.2 +15.2 100 +16 +16 тепло 1015.9 971.3 +13.6
07 17.09 З 1
{2}
6000 м в посл. час туман 6/4 30 м
[Sc Ac trans Ci fib]
+16.4 +16.4 100 +17 +19 тепло 1015.8 971.4
08 17.09 Ю 1
{3}
12 км 9/5 180 м
[Sc Ac und]
+18.2 +17.5 96 +20 +21 тепло 1015.5 971.5
09 17.09 штиль 0
{2}
20 км {туман} 6/4 800 м
[Cu Sc Ac trans Ci fib]
+21.0 +17.4 80 +25 +30 комфорт 1014.9 971.3
10 17.09 ЮВ 1
{2}
20 км 3/3 800 м
[Cu hum Ac trans Ci fib]
+22.7 +17.6 73 +28 +36 душно 1014.1 970.8
11 17.09 В 2
{4}
30 км 3/3 700 м
[Cu hum Ci fib]
+23.9 +18.5 72 +28 +36 душно 1013.5 970.4
12 17.09 В 2
{4}
30 км {туман} 3/3 700 м
[Cu hum Ci fib]
+24.3 +17.3 65 +28 +35 душно 1012.7 969.6
13 17.09 Ю 2
{4}
30 км 4/4 1000 м
[Cu Sc]
+25.2 +17.4 62 +29 +34 душно 1012.2 969.2
14 17.09 ЮВ 4
{6}
30 км 4/4 1000 м
[Cu Sc]
+25.6 +18.3 64 +30 +32 душно 1011.4 968.6
15 17.09 ЮЗ 3
{5}
30 км 3/3 1000 м
[Cu Sc]
+25.5 +16.1 56 +29 +30 душно 1011.1 968.3
16 17.09 ЮЗ 3
{7}
30 км 3/1 700 м
[Cu Sc Ac trans Ci fib]
+24.3 +15.8 59 +27 +28 жарко 1011.4 968.3
17 17.09 Ю 2
{4}
30 км 4/1 700 м
[Cu Sc Ac trans Ci fib]
+22.4 +16.0 67 +27 +27 душно 1011.5 968.2
18 17.09 В 2
{3}
30 км 6/3 700 м
[Cu Sc Ac trans Ci fib]
+19.9 +17.1 84 +23 +23 комфорт 1012.7 968.9 +26.0
19 17.09 В 2
{2}
30 км слаб. ливневой дождь 9/4 1000 м
[Cu Sc Ac As Ci fib]
+19.1 +17.8 92 +21 +21 комфорт 1013.1 969.3
20 17.09 штиль 0
{2}
20 км в посл. час ливневой дождь 9/3 1000 м
[Cu Sc Ac As Ci fib]
+18.3 +17.3 94 +19 +19 тепло 1013.7 969.7
21 17.09 СЗ 2
{2}
10 км {ливн. осадки} 9/4 1000 м
[Cu Sc Ac As Ci fib]
+18.1 +17.6 97 +19 +19 тепло 1014.0 970.0
22 17.09 ЮЗ 1
{2}
20 км 9/4 1000 м
[Cu Sc Ac As Ci fib]
+18.1 +17.5 96 +19 +19 тепло 1014.1 970.1
23 17.09 штиль 0
{2}
20 км 8/3 1000 м
[Cu Sc Ac trans Ci fib]
+17.2 +16.6 96 +17 +17 тепло 1014.3 970.1
00 18.09 С 1
{2}
20 км {ливн. осадки} 6/6 1000 м
[Cu Sc Ac trans Ci fib]
+16.4 +16.2 99 +17 +17 тепло 1014.8 970.5 0.0
01 18.09 ЮЗ 1
{2}
10 км 9/9 700 м
[Cu Sc Ac trans Ci fib]
+17.0 +16.8 99 +18 +18 тепло 1014.8 970.5
02 18.09 СЗ 1
{2}
900 м слаб. ливневой дождь 9/9 900 м
[Cu Sc Ac trans Ci fib]
+17.3 +17.1 99 +18 +18 тепло 1014.9 970.7
03 18.09 Ю 1
{1}
10 км осадки на расстоянии 9/9 90 м
[Cu med, cong Ac As]
+17.2 +17.0 99 +18 +18 тепло 1015.3 971.1
04 18.09 ЮВ 3 8000 м дымка 10/10 180 м
[Cu Sc]
+17.3 +16.8 97 +17 +17 тепло 1016.0 971.7
05 18.09 ЮВ 4 8000 м слаб. ливневой дождь 10/9 150 м
[Cu Sc Ac As]
+17.0 +16.5 97 +16 +16 тепло 1016.9 972.5
06 18.09 ЮВ 6
{8}
8000 м слаб. ливневой дождь 10/10 150 м
[Cu Sc]
+16.3 +15.3 94 +15 +15 тепло 1017.9 973.4 +16.2 3
07 18.09 ЮВ 7 8000 м слаб. ливневой дождь 10/10 150 м
[Cu Sc]
+14.6 +13.5 93 +12 +12 прохладно 1019.8 974.9
08 18.09 В 5 7000 м слаб. ливневой дождь 10/10 400 м
[Cu Sc]
+13.4 +12.5 94 +11 +11 прохладно 1021.8 976.7
09 18.09 ЮВ 6
{8}
10 км в посл. час ливневой дождь 10/10 180 м
[Cu Sc]
+12.9 +12.0 94 +10 +10 прохладно 1022.4 977.2
10 18.09 ЮВ 4 12 км 10/10 180 м
[Cu Sc]
+13.0 +12.1 94 +11 +11 очень
холодно
1023.0 977.7
11 18.09 ЮВ 4 10 км слаб. дождь 10/10 210 м
[Sc]
+13.0 +11.1 88 +11 +11 очень
холодно
1023.2 977.9
12 18.09 В 3
{5}
12 км в посл. час дождь 10/10 180 м
[Sc]
+13.2 +10.6 84 +12 +12 холодно 1023.0 977.7 3
13 18.09 ЮВ 3 12 км 10/10 700 м
[Sc]
+13.2 +10.7 85 +12 +12 холодно 1022.8 977.5
14 18.09 Ю 3
{4}
15 км 10/10 450 м
[Sc]
+12.9 +10.8 87 +11 +11 холодно 1022.8 977.4
15 18.09 В 2
{5}
15 км 10/10 450 м
[Sc]
+12.6 +10.3 86 +12 +12 прохладно 1022.8 977.4
16 18.09 ЮВ 2 15 км 10/10 400 м
[Sc]
+12.1 +9.7 85 +11 +11 прохладно 1023.0 977.5
17 18.09 В 1 15 км 10/9 480 м
[Cu Sc Ac As]
+11.8 +9.7 87 +12 +12 прохладно 1023.3 977.7
18 18.09 С 1
{2}
15 км 10/10 400 м
[Sc]
+11.8 +10.5 92 +12 +12 прохладно 1023.5 978.0 +16.3 3
19 18.09 С 1 20 км 10/10 400 м
[Sc]
+11.9 +10.3 90 +12 +12 по сезону 1023.6 978.1
20 18.09 З 1 20 км 10/10 400 м
[Sc]
+11.6 +11.0 96 +11 +11 по сезону 1023.8 978.3
21 18.09 СЗ 2
{3}
20 км 10/10 180 м
[Sc]
+11.6 +10.0 90 +10 +10 по сезону 1023.8 978.2
22 18.09 З 3 20 км 9/9 900 м
[Sc]
+11.4 +10.3 93 +9 +9 по сезону 1023.7 978.1
23 18.09 СЗ 1 20 км 10/10 900 м
[Sc]
+11.4 +10.1 92 +11 +11 по сезону 1023.8 978.2
00 19.09 СЗ 1
{2}
20 км 10/10 1200 м
[Sc]
+11.4 +10.0 91 +11 +11 по сезону 1023.5 977.9
01 19.09 С 1 20 км 9/9 1200 м
[Sc]
+11.3 +10.1 92 +11 +11 по сезону 1023.1 977.5
02 19.09 С 1 30 км 9/9 1200 м
[Sc]
+11.1 +10.3 95 +11 +11 по сезону 1022.9 977.3
03 19.09 СЗ 2
{2}
30 км 8/5 1200 м
[Sc Ac trans]
+10.8 +10.0 95 +9 +9 по сезону 1022.8 977.2
04 19.09 В 1
{2}
30 км 9/6 1200 м
[Sc Ac trans]
+10.4 +9.9 97 +10 +10 по сезону 1022.9 977.2
05 19.09 С 1
{2}
30 км 9/9 1200 м
[Sc]
+10.4 +10.1 98 +10 +10 по сезону 1023.7 977.9
06 19.09 С 1
{1}
30 км 9/9 1200 м
[Sc]
+11.0 +10.4 96 +11 +11 по сезону 1024.1 978.5 +10.1
07 19.09 штиль 0
{1}
30 км 9/9 1200 м
[Sc]
+12.2 +9.8 85 +12 +12 прохладно 1024.6 979.1
08 19.09 ЮЗ 1
{2}
30 км 8/6 1200 м
[Sc Ac trans Ci fib]
+15.2 +8.9 66 +16 +18 тепло 1024.3 979.2
09 19.09 штиль 0
{2}
30 км 6/4 1200 м
[Cu Sc Ac trans Ci fib]
+15.9 +6.9 55 +16 +21 тепло 1024.1 979.1
10 19.09 В 5
{8}
30 км 6/4 1200 м
[Cu Sc Ac trans Ci fib]
+16.7 +6.0 49 +16 +19 холодно 1023.6 978.8
11 19.09 ЮВ 6
{11}
30 км 5/3 1200 м
[Cu Sc Ac trans Ci fib]
+16.8 +5.8 48 +16 +18 прохладно 1023.5 978.6
12 19.09 В 6
{10}
н/о н/о +17.2 +6.1 48 +16 +16 прохладно 1023.0 978.3
13 19.09 В 5
{9}
40 км 6/3 1500 м
[Cu Sc Ac trans Ci sp]
+17.0 +5.3 46 +16 +16 по сезону 1023.0 978.2
14 19.09 В 6
{9}
30 км 6/3 1500 м
[Cu Sc Ac trans Ci sp]
+16.8 +6.0 49 +16 +17 по сезону 1022.8 978.0
15 19.09 В 5
{8}
40 км 6/3 1500 м
[Cu Sc Ci sp]
+15.5 +5.7 52 +14 +15 прохладно 1023.0 978.0
16 19.09 ЮВ 6
{8}
40 км 6/3 1500 м
[Cu Sc Ci sp]
+14.7 +6.0 56 +13 +13 по сезону 1023.4 978.3
17 19.09 ЮВ 4
{6}
40 км 5/4 1500 м
[Cu Sc Ci sp]
+12.6 +5.8 63 +11 +11 прохладно 1024.4 978.9
18 19.09 ЮВ 3
{6}
40 км 5/4 1500 м
[Cu Sc Ac trans Ci sp]
+11.4 +6.5 72 +10 +10 прохладно 1025.4 979.7 +17.9
19 19.09 ЮВ 2
{3}
40 км 4/3 1500 м
[Cu Sc Ac lent Ci fib]
+10.6 +6.6 76 +9 +9 прохладно 1025.9 980.0
20 19.09 В 3
{7}
40 км 4/3 1500 м
[Cu Sc Ac lent Ci fib]
+11.4 +5.9 69 +10 +10 по сезону 1026.8 981.0
21 19.09 В 3
{5}
40 км 4/3 1300 м
[Cu Sc Ac trans Ci fib]
+10.8 +5.4 69 +9 +9 прохладно 1027.4 981.5
22 19.09 ЮВ 3
{4}
40 км 4/4 1200 м
[Cu Sc Ac trans]
+10.1 +5.9 75 +8 +8 по сезону 1027.8 981.7
23 19.09 ЮВ 4
{5}
40 км 4/4 1200 м
[Cu Sc Ac trans]
+10.4 +4.1 65 +8 +8 по сезону 1028.0 982.0
00 20.09 ЮВ 4
{6}
30 км 5/5 1200 м
[Cu Sc Ac trans]
+8.8 +4.6 75 +6 +6 прохладно 1028.4 982.2
01 20.09 В 4
{6}
30 км 6/6 1200 м
[Cu Sc Ac trans]
+9.4 +3.8 68 +7 +7 по сезону 1028.1 981.9
02 20.09 В 3
{5}
30 км 5/5 1080 м
[Cu Sc Ac trans]
+7.9 +4.3 78 +5 +5 прохладно 1028.5 982.1
03 20.09 СЗ 3
{3}
30 км 5/5 1080 м
[Cu Sc Ac trans]
+6.0 +4.6 91 +3 +3 холодно 1028.9 982.1
04 20.09 З 1
{3}
40 км 4/3 1080 м
[Cu Sc Ac trans Ci fib]
+4.7 +3.8 94 +3 +3 прохладно 1029.1 982.1
05 20.09 З 1
{2}
40 км 3/3 1380 м
[Cu Sc Ac trans Ci fib]
+4.3 +3.9 97 +3 +3 холодно 1029.4 982.4
06 20.09 штиль 0
{1}
40 км 4/4 1380 м
[Sc Ac trans Ci fib]
+4.9 +4.6 98 +4 +4 прохладно 1029.5 982.5 +4.0
08 20.09 В 1
{3}
50 км 4/3 1500 м
[Cu Sc Ac trans Ci fib]
+12.1 +3.6 56 +12 +17 по сезону 1029.0 983.2
09 20.09 СВ 2
{4}
50 км 4/1 1380 м
[Cu Sc Ac trans Ci sp]
+12.9 +3.8 54 +12 +18 по сезону 1025.5 982.9
10 20.09 ЮВ 1
{5}
50 км 4/1 1380 м
[Cu Sc Ac trans Ci fib]
+13.5 +3.0 49 +14 +22 холодно 1028.0 982.4
11 20.09 Ю 2
{6}
50 км 3/1 1500 м
[Cu hum Ci fib]
+15.3 +3.5 45 +15 +24 прохладно 1027.1 981.9
12 20.09 ЮВ 3
{6}
50 км 3/1 1500 м
[Cu hum Ci fib]
+15.6 +3.7 45 +15 +22 прохладно 1026.5 981.4
13 20.09 ЮВ 5
{7}
50 км 1/1 1500 м
[Cu hum Ci fib]
+16.1 +3.9 44 +15 +19 по сезону 1026.2 981.1
14 20.09 ЮВ 3
{7}
50 км 1/1 1500 м
[Cu hum Ci fib]
+16.2 +4.3 45 +16 +20 по сезону 1025.9 980.9
15 20.09 ЮВ 4
{6}
50 км 1/1 1500 м
[Cu hum Ci fib]
+16.0 +4.1 45 +15 +17 по сезону 1025.6 980.6
16 20.09 ЮВ 3
{5}
50 км 1/1 1500 м
[Sc Ci fib]
+14.9 +5.4 53 +14 +15 по сезону 1025.9 980.7
17 20.09 ЮВ 2
{3}
50 км 1/1 1500 м
[Sc Ci fib]
+12.0 +5.9 66 +11 +11 прохладно 1026.5 980.8
18 20.09 В 1
{2}
50 км 1/0
[Ci fib]
+8.8 +6.4 85 +8 +8 холодно 1027.6 981.4 +16.6
19 20.09 СЗ 2
{2}
50 км 1/0
[Ci fib]
+7.2 +5.7 90 +5 +5 холодно 1028.5 982.0
20 20.09 СЗ 1
{2}
50 км ясно +6.2 +5.2 93 +5 +5 холодно 1028.7 982.0
21 20.09 штиль 0
{2}
50 км ясно +5.7 +5.0 95 +5 +5 холодно 1028.8 982.0
22 20.09 З 1
{2}
50 км ясно +5.2 +4.6 96 +4 +4 прохладно 1029.1 982.2
23 20.09 штиль 0
{1}
50 км ясно +4.4 +4.0 97 +3 +3 холодно 1029.4 982.4
00 21.09 СЗ 1
{2}
50 км ясно +4.0 +3.6 97 +2 +2 очень
холодно
1029.5 982.4
01 21.09 штиль 0
{1}
50 км ясно +3.2 +2.9 98 +2 +2 холодно 1029.6 982.3
02 21.09 штиль 0
{2}
40 км ясно +3.2 +2.9 98 +2 +2 холодно 1029.2 982.0
03 21.09 Ю 1
{1}
40 км ясно +2.9 +2.8 99 +1 +1 очень
холодно
1029.0 981.7
04 21.09 штиль 0
{2}
50 км ясно +2.4 +2.1 98 +1 +1 холодно 1028.9 981.5
05 21.09 штиль 0
{1}
50 км 1/0
[Ci fib]
+2.2 +2.1 99 +1 +1 холодно 1029.3 981.9
06 21.09 ЮВ 1
{1}
50 км 1/0
[Ci fib]
+4.7 +4.4 98 +3 +4 холодно 1028.9 982.0 +1.9
07 21.09 З 1
{2}
50 км 1/0
[Ci fib]
+7.6 +6.1 90 +7 +9 холодно 1028.6 982.1
08 21.09 штиль 0
{2}
50 км 1/0
[Ci fib]
+10.6 +6.7 77 +10 +17 прохладно 1028.1 982.2
09 21.09 В 1
{2}
50 км 1/0
[Ci fib]
+13.7 +7.3 65 +14 +23 по сезону 1027.2 981.7
10 21.09 В 2
{5}
50 км 1/0
[Ci fib]
+15.4 +4.8 49 +15 +25 холодно 1026.5 981.3
11 21.09 Ю 2
{6}
50 км ясно +16.4 +3.8 43 +17 +27 прохладно 1025.7 980.7
12 21.09 ЮВ 2
{5}
50 км ясно +17.0 +4.0 42 +17 +27 по сезону 1024.9 980.0
13 21.09 В 1
{5}
50 км ясно +17.9 +5.2 43 +19 +28 тепло 1024.2 979.5
14 21.09 ЮВ 2
{5}
50 км ясно +17.8 +3.3 38 +18 +23 тепло 1023.8 979.1
15 21.09 ЮВ 2
{4}
50 км ясно +17.7 +4.0 40 +18 +21 тепло 1023.3 978.6
16 21.09 ЮВ 2
{3}
50 км ясно +16.5 +7.7 56 +17 +17 тепло 1022.9 978.1
17 21.09 штиль 0
{1}
50 км ясно +12.5 +9.2 80 +12 +12 по сезону 1023.3 977.9
18 21.09 штиль 0
{2}
50 км ясно +9.6 +7.4 86 +9 +9 холодно 1024.2 978.2 +18.4
19 21.09 З 1
{1}
50 км ясно +8.4 +6.9 90 +8 +8 прохладно 1024.4 978.3
20 21.09 З 1
{3}
50 км ясно +6.9 +5.9 93 +6 +6 холодно 1024.7 978.3
21 21.09 ЮЗ 1
{1}
50 км ясно +6.4 +5.7 95 +5 +5 холодно 1024.8 978.3
22 21.09 Ю 1
{1}
50 км ясно +5.7 +5.3 97 +4 +4 прохладно 1024.1 977.5
23 21.09 С 1
{2}
50 км ясно +4.6 +4.2 97 +3 +3 холодно 1023.8 977.0
00 22.09 СВ 1
{1}
50 км ясно +4.3 +4.2 99 +3 +3 холодно 1023.7 976.9
01 22.09 С 1
{2}
50 км ясно +4.0 +3.7 98 +2 +2 холодно 1023.6 976.7
02 22.09 штиль 0
{2}
50 км ясно +3.4 +3.1 98 +2 +2 холодно 1022.9 975.9
03 22.09 штиль 0
{1}
50 км ясно +3.2 +3.1 99 +2 +2 холодно 1022.4 975.5
04 22.09 штиль 0
{1}
50 км ясно +3.0 +2.7 98 +2 +2 холодно 1022.3 975.4
05 22.09 С 1
{2}
50 км 5/1 90 м
[St Ac lent Ci sp]
+2.7 +2.4 98 +1 +1 холодно 1022.7 975.6
06 22.09 штиль 0
{3}
50 км 6/1 90 м
[St Ac lent Ci sp]
+4.7 +4.6 99 +3 +4 холодно 1022.1 975.4 +2.5
07 22.09 ЮВ 1
{2}
50 км 6/1 300 м
[Cu hum Ac lent Ci sp]
+7.7 +7.0 95 +7 +8 холодно 1020.9 974.8
08 22.09 СВ 1
{2}
50 км 9/1 300 м
[Cu hum Ac lent Cs]
+9.6 +7.4 86 +9 +12 прохладно 1020.4 974.7
09 22.09 В 1
{3}
50 км 9/0
[Ac lent Cs]
+10.9 +7.8 81 +11 +17 прохладно 1020.0 974.5
10 22.09 СВ 1
{2}
50 км 9/1 1500 м
[Sc Ac lent Cs]
+13.7 +7.5 66 +14 +19 холодно 1018.4 973.4
11 22.09 СВ 1
{2}
50 км 9/1 1500 м
[Sc Ac lent Cs]
+16.8 +8.0 56 +18 +24 по сезону 1017.2 972.7
12 22.09 ЮВ 2
{4}
50 км 8/1 1500 м
[Sc Ac lent Ci sp]
+17.8 +7.5 51 +18 +23 по сезону 1016.7 972.3
13 22.09 штиль 0
{3}
50 км 9/1 1500 м
[Sc Ac As Ci sp]
+18.3 +6.5 46 +18 +24 по сезону 1016.2 971.9
14 22.09 ЮЗ 2
{4}
50 км 9/5 1500 м
[Cu Sc Ac As Ci sp]
+17.0 +9.2 60 +17 +19 по сезону 1016.6 972.2
15 22.09 Ю 2
{5}
40 км слаб. дождь 10/8 1380 м
[Cu Sc Ac As]
+13.9 +9.4 74 +13 +14 прохладно 1017.3 972.3
16 22.09 В 1
{2}
40 км в посл. час дождь 9/8 1200 м
[Sc Ac As]
+12.9 +11.0 88 +13 +13 по сезону 1017.3 972.2
17 22.09 В 1
{2}
50 км слаб. дождь 9/8 1080 м
[Sc Ac As]
+12.5 +10.9 90 +12 +12 по сезону 1017.1 971.9
18 22.09 С 1
{2}
30 км в посл. час дождь 9/8 1080 м
[Sc Ac As]
+12.7 +10.9 89 +13 +13 по сезону 1016.7 971.7 +18.4 0.0
19 22.09 З 2
{3}
30 км 10/10 1080 м
[Sc]
+12.6 +10.5 87 +12 +12 по сезону 1016.0 971.0
20 22.09 СЗ 2
{4}
30 км 10/10 1000 м
[Sc]
+12.7 +10.4 86 +12 +12 по сезону 1015.9 970.9
21 22.09 С 2
{3}
30 км 10/10 800 м
[Sc]
+12.7 +10.8 88 +12 +12 по сезону 1015.5 970.5
22 22.09 СЗ 1
{2}
30 км 10/10 800 м
[Sc]
+12.4 +10.3 87 +12 +12 тепло 1015.3 970.2
23 22.09 З 2
{3}
30 км 10/10 900 м
[Sc]
+12.4 +10.1 86 +11 +11 по сезону 1015.1 970.1
00 23.09 З 1
{2}
30 км 10/10 900 м
[Sc]
+12.3 +10.5 89 +12 +12 тепло 1015.3 970.2
01 23.09 СЗ 2
{3}
20 км 10/10 800 м
[Sc]
+12.5 +10.4 87 +12 +12 тепло 1014.8 969.8
02 23.09 З 2
{3}
20 км 10/10 800 м
[Sc]
+12.5 +10.2 86 +12 +12 тепло 1014.5 969.5
03 23.09 З 2
{2}
30 км 10/10 800 м
[Sc]
+11.9 +10.6 92 +11 +11 по сезону 1014.0 968.9
04 23.09 С 1
{3}
30 км 9/5 800 м
[Sc Ac trans Ci fib]
+11.2 +10.1 93 +11 +11 тепло 1013.7 968.5
05 23.09 З 1
{3}
30 км 9/1 900 м
[Sc Ac trans Ci fib]
+10.7 +9.9 95 +10 +10 по сезону 1013.7 968.4
06 23.09 ЮВ 1
{2}
30 км слаб. дождь 9/5 1200 м
[Sc Ac As]
+11.8 +10.5 92 +12 +12 тепло 1013.7 968.6 +10.5 0.0
07 23.09 СВ 1
{2}
30 км в посл. час дождь 8/4 1200 м
[Cu Sc Ac As Ci fib]
+13.1 +11.5 90 +13 +14 по сезону 1013.5 968.6
08 23.09 СЗ 1
{3}
30 км 9/4 1200 м
[Cu Sc Ac As Ci fib]
+16.4 +12.4 77 +17 +19 тепло 1012.8 968.5
09 23.09 ЮЗ 1
{3}
30 км 9/4 1200 м
[Cu Sc Ac As Ci fib]
+18.5 +12.9 70 +20 +23 тепло 1012.2 968.2
10 23.09 штиль 0
{2}
30 км 9/4 900 м
[Cu Sc Ac As Ci fib]
+19.0 +14.5 75 +20 +24 по сезону 1011.8 967.9
11 23.09 Ю 1
{4}
10 км ливневой дождь 9/6 900 м
[Cu Sc Ac As Ci fib]
+16.8 +15.8 94 +18 +21 по сезону 1011.5 967.4
12 23.09 Ю 2
{3}
15 км ливневой дождь 9/6 900 м
[Cu Sc Ac As]
+17.7 +16.0 90 +18 +20 по сезону 1010.9 966.9 4
13 23.09
{2}
10 км слаб. ливневой дождь 10/8 400 м
[Cu Sc Ac As]
+16.8 +16.2 96 1011.0 966.9
14 23.09 ЮЗ 2
{5}
10 км слаб. ливневой дождь 10/8 400 м
[Cu Sc Ac As]
+16.8 +16.3 97 +17 +17 по сезону 1010.8 966.7
15 23.09 СЗ 3
{5}
10 км слаб. ливневой дождь 10/8 400 м
[Cu Sc Ac As]
+16.5 +15.7 95 +16 +16 по сезону 1010.6 966.4
16 23.09 С 2
{2}
6000 м ливневой дождь 10/10 300 м
[Cu Sc]
+15.8 +15.5 98 +16 +16 тепло 1012.2 967.9
17 23.09 С 2 8000 м дождь 10/10 90 м
[Sc]
+15.4 +15.1 98 +15 +15 тепло 1012.1 967.7

 

Местоположение метеостанции Любляна (Словения): широта 46.22 долгота 14.48 высота над уровнем моря 385 м.

В архиве по умолчанию представлена погода в Любляне за последнюю неделю. Архивные данные за месяц целиком и за предыдущие месяцы, начиная с января 2011 года, Вы можете получить, выбрав интересующий диапазон дат из раскрывающегося списка и нажав кнопку "Ввод!".


*Определитесь, кто Вы:
робот инопланетянин человек

Внимание! Время в таблицах - всемирное. Для получения местного времени необходимо прибавить поправку, которая равна 1 ч.

Смотрите также архив погоды в соседних городах и на ближайших метеорологических станциях:

Погода в Катарине (Словения) (16 км)
Погода в Любляне (Словения) (17 км)
Погода в Лесце (Словения) (28 км)
Погода Айзенкаппель-Феллах (Австрия) (30 км)
Погода в Файстриц-об-Блайбурге (Австрия) (45 км)
Погода в Клагенфурте (Австрия) (47 км)
Погода в Клагенфурте (Австрия) (49 км)
Погода на Войско (Словения) (49 км)
Погода на Вогеле (Словения) (50 км)
Погода в Пёрчах-ам-Вёртерзе (Австрия) (51 км)

Пояснения к столбцам:

Ветер - указаны скорость ветра в м/с - средняя за 10 мин, порывы в срок и между сроками (в фигурных скобках) и направление, откуда дует ветер: С - северный, СВ - северо-восточный, В - восточный, ЮВ - юго-восточный, Ю - южный, ЮЗ - юго-западный, З - западный, СЗ - северо-западный.
Видимость - горизонтальная дальность видимости в метрах или километрах. При видимости от 1 до 10 км при отсутствии осадков обычно наблюдается дымка, при ухудшении видимости до 1 км и менее - туман. В сухую погоду видимость может ухудшаться дымом, пылью или мглою.
Явления - указаны атмосферные явления, наблюдавшиеся в срок или в последний час перед сроком; фигурными скобками обозначены явления, наблюдавшиеся между сроками (за 1-3 часа до срока); квадратными скобками обозначены град или гололедные отложения с указанием их диаметра в мм.
Облачность - указаны через наклонную черту общая и нижняя облачность в баллах и высота нижней границы облаков в метрах; квадратными скобками обозначены формы облаков: Ci - перистые, Cs - перисто-слоистые, Cc - перисто-кучевые, Ac - высококучевые, As - высокослоистые, Sc - слоисто-кучевые, Ns - слоисто-дождевые, Cu - кучевые, Cb - кучево-дождевые. Подробнее классификацию облаков см. в Атласе облаков (PDF).
T - Температура воздуха - температура, измеренная на высоте 2 м над землей.
Td - Температура точки росы - температура, при понижении до которой содержащийся в воздухе водяной пар достигнет насыщения.
f - Относительная влажность воздуха - влажноcть воздуха, измеренная на высоте 2 м над землей.
Te - Эффективная температура - температура, которую ощущает одетый по сезону человек в тени. Характеристика душности погоды. При расчете учитывается влияние влажности воздуха и скорости ветра на теплоощущения человека.
Tes - Эффективная температура на солнце - температура, которую ощущает человек, с поправкой на солнечный нагрев. Характеристика знойности погоды. Зависит от высоты солнца над горизонтом, облачности и скорости ветра. Ночью, в пасмурную погоду, а также при ветре 12 м/с и более поправка равна нулю.
P - Атмосферное давление - приведенное к уровню моря атмосферное давление.
Po - Атмосферное давление - измеренное на уровне метеостанции атмосферное давление.
Tmin - Минимальная температура - минимум температуры воздуха на высоте 2 м над землей.
Tmax - Максимальная температура - максимум температуры воздуха на высоте 2 м над землей.
R - Количество осадков - Количество выпавших осадков за период времени, мм. При наведении курсора мыши на число - период времени, за который выпало указанное количество осадков.
R24 - Количество осадков - Количество выпавших осадков за 24 часа, мм.
S - Снежный покров - Высота снежного покрова, см. При наведении курсора мыши на число - состояние снежного покрова и степень покрытия местности в баллах.